Zurück zum Katalog

STARLINK-35849

AktivKommunikationVLEO
NORAD 66348·PAYLOAD·🇺🇸 United States

Gestartet Nov 6, 2025 von Vandenberg Space Force Base

Loading…

Nächste Überflüge (nächste 24 Stunden)

TLE

AktuellSource: CelesTrak SupGP

Epoche: Sep 15, 2026, 04:06 UTC

1 66348C 25254A   26258.17131944 -.00022302  00000+0 -65909-3 0  2588
2 66348  53.1575  70.3474 0001119  92.3792 286.4719 15.34393596    10

Verfolge STARLINK-35849 in Echtzeit mit AllMySat

Download on the App Store